{"data":{"norad_id":67219,"intl_designator":"2025-305A","name":"DISKSAT C","alt_names":[],"object_type":"PAYLOAD","status":"ACTIVE","operator":null,"country":"US","launch_date":"2025-12-18","launch_site_code":"WLPIS","launch_vehicle":null,"mission":null,"orbit_class":"UNKNOWN","rcs_meters":null,"size_class":null,"mass_kg":null,"dimensions":null,"purposes":[],"wikipedia_slug":null,"has_3d_model":false,"image_url":null,"decayed_at":null,"tle_current":{"epoch":"2026-09-18T03:57:48.581568Z","epoch_age_seconds":307928,"freshness":"STALE","line1":"1 67219U 25305A   26261.16514562  .00005355  00000+0  32895-3 0  9994","line2":"2 67219  45.0026 308.5871 0007345 329.2242  30.8204 15.11110974 41382","mean_motion":15.11110974,"eccentricity":0.0007345,"inclination_deg":45.0026,"raan_deg":308.5871,"arg_perigee_deg":329.2242,"mean_anomaly_deg":30.8204,"bstar":0.00032895,"rev_number":4138,"period_min":95.294126293599,"perigee_km":527.73453369823,"apogee_km":537.88671575896,"semimajor_km":6910.9476247286,"source":"CELESTRAK","updated_at":"2026-09-21T09:00:16.504679Z"}}}